Weather in Romanovka

Russia / Saint-Petersburg and Leningrad Oblast     59°36′53″N   30°12′16″E
temp.,
°C
wind,
m/s
gust,
m/s
humid.,
%
clouds,
%
prec.,
mm/h
press.,
hPa
HPBL,
m
9 march, tue
tue900:00−13nnw259668 0.0 1017184
03:00−14n129784 0.1 101873
06:00−16nne119894 0.0 101927
09:00−15ne239278 0.0 1021174
12:00−13ene237699 0.0 1022443
15:00−11ene226599 0.0 1022575
18:00−12ene3581100 0.0 1023430
21:00−17ene379497 0.0 1024280
10 march, wed
wed1000:00−18ene379368 0.0 1025313
03:00−19ene379140 0.0 1027260
06:00−20e37860 0.0 1028256
09:00−19e25824 0.0 1030239
12:00−14e366531 0.0 1030448
15:00−11ese355926 0.0 1030536
18:00−12ese24741 0.0 1030160
21:00−15ese23871 0.0 103073
11 march, thu
thu1100:00−15se26890 0.0 1030135
03:00−15sse38880 0.0 1030226
06:00−16sse310830 0.0 1028290
09:00−14sse512690 0.0 1027426
12:00−10sse5106510 0.0 1025499
15:00−8sse5107741 0.0 1023521
18:00−8s5118433 0.0 1020498
21:00−9s5139128 0.0 1019508
12 march, fri
fri1200:00−9s5139398 0.0 1017464
03:00−10sse5139399 0.1 1015505
06:00−10sse61490100 0.1 1012590
09:00−9s71685100 0.1 1010685
12:00−6sse71375100 0.0 1008762
15:00−4sse71478100 0.1 1006943
18:00−5s71389100 0.3 10051030
21:00−4s61391100 0.9 1004843
13 march, sat
sat1300:00−4s51391100 0.3 1003600
03:00−3s51195100 0.4 1002543
06:00−3s4119593 0.1 1002388
09:00−1ssw5109497 0.2 1002645
12:00+1ssw51097100 0.2 1003675
15:00+3ssw598488 0.3 1003852
18:00+1s4108898 0.0 1003680
21:000s5129799 0.1 1002749